O3B FM5 (39188 NORAD) Tracking and Keplerian Element Data

This shows tracking and keplerian element data for the satellite.

Feedback or suggestion? Click here.




ElementValue
Catalog39188
NameO3B FM5
Epoch Orbit9249
Epoch Day198.7898674
Epoch Year2018
RAAN353.8958
Inclination0.0271
Eccentricity0.0002595
Argument of Perigee120.9923
Mean Anonmoly245.1352
Mean Motion5.001158
Decay Rate-2.7E-07
L11 39188U 13031A 18198.78986740 -.00000027 00000-0 00000-0 0 9993
L22 39188 0.0271 353.8958 0002595 120.9923 245.1352 5.00115800 92495

Live tracking and technical data element details for O3B FM5 (NORAD 39188). O3B FM5 can be tracked NOW for your location showing map with azimuth and elevation plus other details from your city location.

Track the satellite on the map from your city or location and see movement details for azimuth, elevation, latitude, longitude, range, height, and movement on the map or in text.







IsCatalogInMostPopularTable: catalog: 39188, numindb: 50
Update: records affected: 1



GetName: 39188 O3B FM5

Hit Count: updated at: Thu, 19 Jul 2018 21:29:24 GMT